EW8756 Weather Reports


Display with metric or nautical units.
time (UTC)temp
F
wind
direction
speed
MPH
gust
MPH
rain 1hr
in
rain 24hr
in
rain mn
in
humidity
%
barometer
mb
20260506014546 64 283 4.0 11.0 0.00 0.00 0.00 69 1015.0
20260506013053 65 284 3.0 8.0 0.00 0.00 0.00 68 1014.9
20260506011547 64 317 3.0 9.0 0.00 0.00 0.00 67 1015.0
20260506010048 65 199 2.0 8.0 0.00 0.00 0.00 66 1015.0
20260506004543 66 237 6.0 9.0 0.00 0.00 0.00 64 1015.0
20260506003040 65 117 3.0 7.0 0.00 0.00 0.00 66 1015.1
20260506001539 65 191 2.0 10.0 0.00 0.00 0.00 67 1015.1
20260506000037 65 320 3.0 9.0 0.00 0.00 0.00 65 1015.2
20260505234536 64 302 3.0 10.0 0.00 0.00 0.00 67 1015.4
20260505233033 64 308 2.0 8.0 0.00 0.00 0.00 67 1015.6
20260505231533 64 236 4.0 8.0 0.00 0.00 0.00 67 1015.7
20260505230036 63 212 4.0 7.0 0.00 0.00 0.00 68 1015.8
20260505224530 62 197 4.0 7.0 0.00 0.00 0.00 70 1015.9
20260505223036 62 316 2.0 7.0 0.00 0.00 0.00 69 1016.1
20260505221525 62 214 3.0 8.0 0.00 0.00 0.00 72 1016.3
20260505220042 61 305 3.0 10.0 0.00 0.00 0.00 71 1016.1
20260505214530 61 247 2.0 5.0 0.00 0.00 0.00 72 1016.4
20260505213021 61 278 4.0 9.0 0.00 0.00 0.00 72 1016.4
20260505211520 61 263 1.0 7.0 0.00 0.00 0.00 72 1016.5
20260505210017 59 295 2.0 9.0 0.00 0.00 0.00 74 1016.5
20260505204515 59 230 2.0 7.0 0.00 0.00 0.00 75 1016.6
20260505203013 59 226 1.0 6.0 0.00 0.00 0.00 76 1016.6
20260505201510 58 253 4.0 10.0 0.00 0.00 0.00 77 1016.6
20260505200014 57 262 3.0 8.0 0.00 0.00 0.00 78 1016.6
20260505194506 57 251 3.0 9.0 0.00 0.00 0.00 78 1016.7
20260505193003 56 258 3.0 9.0 0.00 0.00 0.00 79 1016.6
20260505191609 56 195 4.0 7.0 0.00 0.00 0.00 80 1016.6
20260505190055 56 204 2.0 5.0 0.00 0.00 0.00 80 1016.7
20260505184557 55 220 4.0 9.0 0.00 0.00 0.00 81 1016.7
20260505183050 55 212 0.0 9.0 0.00 0.00 0.00 82 1016.6
20260505181555 56 169 2.0 6.0 0.00 0.00 0.00 82 1016.6
20260505180046 55 222 4.0 7.0 0.00 0.00 0.00 82 1016.5
20260505174547 55 204 3.0 7.0 0.00 0.00 0.00 83 1016.5
20260505173040 54 264 1.0 7.0 0.00 0.00 0.00 83 1016.4
20260505171539 54 212 1.0 6.0 0.00 0.00 0.00 83 1016.3
20260505170037 54 196 2.0 9.0 0.00 0.00 0.00 84 1016.2
20260505164535 54 218 3.0 8.0 0.00 0.00 0.00 84 1016.2
20260505163032 54 219 3.0 7.0 0.00 0.00 0.00 84 1016.1
20260505161540 54 234 2.0 6.0 0.00 0.00 0.00 85 1016.0
20260505153026 53 227 4.0 8.0 0.00 0.00 0.00 85 1015.9
20260505151523 53 177 2.0 8.0 0.00 0.00 0.00 86 1015.8
20260505124510 53 206 4.0 7.0 0.00 0.00 0.00 88 1014.5
20260505123002 53 194 1.0 3.0 0.00 0.00 0.00 88 1014.4
20260505121559 53 210 0.0 5.0 0.00 0.00 0.00 88 1014.3
20260505120104 53 210 4.0 8.0 0.00 0.00 0.00 89 1014.2
20260505114555 53 210 1.0 6.0 0.00 0.00 0.00 89 1014.2
20260505113108 53 207 2.0 4.0 0.00 0.00 0.00 89 1014.2
20260505111554 53 127 1.0 3.0 0.00 0.00 0.00 88 1014.2
20260505101552 53 216 2.0 6.0 0.00 0.00 0.00 89 1013.8
20260505100048 52 229 2.0 5.0 0.00 0.00 0.00 89 1013.8
20260505094547 52 187 2.0 12.0 0.00 0.00 0.00 89 1013.6
20260505093048 52 172 3.0 8.0 0.00 0.00 0.00 90 1013.5
20260505091544 52 235 2.0 8.0 0.00 0.00 0.00 90 1013.5
20260505090142 52 228 2.0 6.0 0.00 0.00 0.00 90 1013.4
20260505084551 52 220 1.0 4.0 0.00 0.00 0.00 90 1013.4
20260505083054 52 220 1.0 5.0 0.00 0.00 0.00 90 1013.3
20260505081542 51 210 1.0 3.0 0.00 0.00 0.00 90 1013.2
20260505080045 52 228 0.0 1.0 0.00 0.00 0.00 89 1013.2
20260505074536 52 206 0.0 2.0 0.00 0.00 0.00 89 1013.1
20260505073036 52 230 0.0 2.0 0.00 0.00 0.00 89 1012.9
20260505071543 53 230 0.0 3.0 0.00 0.00 0.00 88 1012.6
20260505070030 53 209 0.0 3.0 0.00 0.00 0.00 88 1012.6
20260505064533 53 232 1.0 4.0 0.00 0.00 0.00 87 1012.5
20260505063027 54 276 0.0 1.0 0.00 0.00 0.00 87 1012.4
20260505061529 54 301 0.0 0.0 0.00 0.00 0.00 86 1012.2
20260505060033 54 260 1.0 7.0 0.00 0.00 0.00 85 1012.1
20260505054522 55 268 2.0 8.0 0.00 0.00 0.00 84 1011.8
20260505053025 55 254 3.0 9.0 0.00 0.00 0.00 83 1011.8
20260505051520 56 236 1.0 5.0 0.00 0.00 0.00 82 1011.7
20260505041517 59 240 3.0 11.0 0.00 0.00 0.00 76 1011.1
20260505040017 60 236 7.0 15.0 0.00 0.00 0.00 74 1011.0
20260505034516 61 262 3.0 11.0 0.00 0.00 0.00 71 1010.8
20260505033019 62 289 7.0 14.0 0.00 0.00 0.00 69 1010.5
20260505031517 64 276 4.0 12.0 0.00 0.00 0.00 66 1010.3
20260505030015 66 251 5.0 10.0 0.00 0.00 0.00 63 1010.1
20260505024514 68 273 3.0 11.0 0.00 0.00 0.00 61 1009.9
20260505023014 69 281 5.0 11.0 0.00 0.00 0.00 59 1009.7
20260505021514 69 259 4.0 11.0 0.00 0.00 0.00 57 1009.7
20260505020017 70 285 6.0 12.0 0.00 0.00 0.00 54 1009.6